Flag for Germany Weather past 2 weeks in Luckenwalde, Brandenburg, Germany

Now
71 °F

Scattered clouds.


Feels Like: 75 °F
Forecast: 56 / 73 °F
Wind: 5 mph from East

Location: Potsdam

Current Time: Sep 15, 2014 at 12:20:08 PM

Latest Report: Sep 15, 2014 at 12:00 PM


Visibility: 16 mi

Pressure: 30.11 "Hg

Humidity: 66%

Dew point: 59 °F

Location of LuckenwaldeLocation

Historic Weather in Luckenwalde — Graph

°F

Luckenwalde temperature yesterday

Maximum temperature yesterday: 66 °F (at 6:00 PM)
Minimum temperature yesterday: 60 °F (at 1:00 AM)
Average temperature yesterday: 62 °F

Past Weeks' High & Low Weather Summary

 TemperatureHumidityPressure
High81 °F (Sep 6, 5:00 PM)99% (Sep 1, 8:00 AM)30.30 "Hg (Sep 1, 8:00 AM)
Low52 °F (Sep 9, 4:00 AM)43% (Sep 8, 3:00 PM)29.86 "Hg (Aug 31, 6:00 PM)
Average62 °F84%30.06 "Hg
* Reported Aug 31 11:00 AM — Sep 15 11:00 AM, Luckenwalde, Weather by CustomWeather, © 2014

Note: Actual official high and low records may vary slightly from our data, if they occured in-between our weather recording intervals... More about our weather records

Advertising

Luckenwalde weather history for previous 24 hours

 ConditionsComfort  
Time TempWeatherWind HumidityBarometerVisibility
11:00 AM
Sep 15
68 °FScattered clouds.5 mph70%30.11 "Hg17 mi
10:00 AM64 °FPassing clouds.5 mph80%30.11 "Hg12 mi
9:00 AM60 °FPassing clouds.5 mph91%30.10 "Hg11 mi
8:00 AM58 °FScattered clouds.5 mph98%30.11 "Hg9 mi
7:00 AM58 °FPartly sunny.5 mph98%30.10 "Hg6 mi
6:00 AM59 °FPassing clouds.5 mph97%30.09 "Hg9 mi
5:00 AM60 °FOvercast.5 mph97%30.09 "Hg7 mi
4:00 AM60 °FOvercast.6 mph98%30.09 "Hg3 mi
3:00 AM60 °FOvercast.5 mph99%30.09 "Hg17 mi
2:00 AM60 °FPassing clouds.5 mph99%30.08 "Hg17 mi
1:00 AM60 °FFog.5 mph99%30.08 "Hg11 mi
12:00 AM61 °FFog.3 mph99%30.08 "Hg5 mi
11:00 PM
Sep 14
62 °FFog.3 mph99%30.08 "Hg4 mi
10:00 PM63 °FFog.2 mph99%30.08 "Hg4 mi
9:00 PM63 °FLow clouds.3 mph98%30.09 "Hg5 mi
8:00 PM64 °FOvercast.3 mph97%30.08 "Hg5 mi
7:00 PM65 °FOvercast.3 mph96%30.08 "Hg6 mi
6:00 PM66 °FLow clouds.3 mph93%30.08 "Hg9 mi
5:00 PM65 °FLow clouds.3 mph94%30.09 "Hg7 mi
4:00 PM64 °FLow clouds.3 mph95%30.09 "Hg7 mi
3:00 PM64 °FLow clouds.2 mph94%30.11 "Hg5 mi
2:00 PM64 °FOvercast.2 mph93%30.12 "Hg7 mi
1:00 PM64 °FLow clouds.3 mph94%30.11 "Hg5 mi
12:00 PM62 °FFog.2 mph97%30.12 "Hg4 mi
Weather by CustomWeather, © 2014

See weather overviewHow to use our weather pages